Temp
17 17 16 16 16 16 16 15 15 15 15 14 13 13 13 13 13 13 13 13 13 13 13 13 13 13 13 14 14 14 13 12
16 16 15 15 15 16 16 15 15 14 14 13 13 13 13 13 12 12 12 12 12 12 12 12 12 12 12 12 12 12 12 12
16 16 15 15 15 15 15 15 14 14 14 13 13 13 13 12 12 12 12 12 12 12 12 11 11 11 11 12 12 12 12 11
16 16 16 15 15 15 15 14 14 14 14 14 13 13 12 12 12 12 12 12 12 12 12 11 11 11 11 11 12 12 12 11
17 17 16 15 16 15 15 14 14 14 13 13 13 13 13 13 13 13 12 12 12 12 11 11 11 11 11 11 11 11 11 11
17 17 17 16 15 15 15 14 14 14 14 14 14 14 13 14 13 13 13 12 12 12 12 12 11 11 11 11 11 11 11 11
18 17 18 17 16 15 15 15 14 14 14 14 14 14 14 14 14 13 13 12 12 12 12 11 11 11 11 11 11 11 10 11
18 16 15 16 16 16 16 15 14 14 14 14 14 14 14 13 13 13 12 12 11 11 11 11 11 11 11 10 10 10 10 10
16 17 14 16 14 16 15 14 14 14 14 14 13 13 13 12 12 12 12 12 12 12 12 11 11 11 10 10 10 10 10 10
17 16 16 15 14 14 14 14 14 14 13 13 13 12 12 11 12 12 11 11 11 11 10 10 9 9 9 10 10 10 10 10
17 16 15 13 14 14 14 14 14 14 13 13 13 12 12 12 12 11 11 10 10 9 9 9 9 9 9 9 9 9 10 10
17 16 14 14 14 14 14 13 13 13 13 12 12 12 12 11 11 10 10 9 9 9 8 8 8 8 8 8 8 8 8 8
17 16 16 14 14 14 13 13 13 13 12 11 11 11 11 11 9 8 8 8 7 7 7 7 7 7 7 7 7 7 7 8
16 15 14 13 13 13 13 13 12 11 11 10 9 9 9 8 8 8 8 7 7 6 6 6 6 5 5 5 5 6 7 7
14 13 13 13 13 12 12 12 11 11 11 10 10 9 8 8 8 7 6 6 5 5 5 4 4 4 4 4 3 4 3 5
12 12 12 12 11 11 11 10 9 9 8 8 8 8 7 7 6 6 6 4 4 4 3 3 3 3 3 3 3 1 -0 1
12 11 11 11 10 10 9 9 8 7 7 7 6 6 5 5 4 3 3 2 2 2 2 3 2 2 2 1 1 1 1 -0
11 11 11 10 9 9 9 8 7 7 7 6 6 5 4 3 2 1 1 1 1 1 1 1 1 0 -0 -0 -1 -1 -2 -2
11 11 10 10 9 9 8 7 7 6 6 5 4 3 2 2 1 1 0 0 0 -0 -0 -0 -1 -1 -1 -1 -1 -2 -2 -3
11 11 10 9 9 8 7 7 5 5 4 4 3 2 1 1 1 -0 -1 -1 -1 -1 -2 -2 -2 -2 -2 -2 -2 -3 -3 -3
Height
1565 1567 1568 1568 1568 1567 1568 1567 1568 1569 1572 1573 1572 1573 1573 1572 1573 1571 1570 1569 1568 1567 1564 1563 1561 1559 1558 1557 1556 1556 1555 1554
1568 1568 1570 1571 1569 1570 1569 1568 1570 1570 1571 1571 1572 1572 1572 1571 1572 1571 1570 1569 1567 1565 1563 1562 1560 1558 1556 1555 1554 1554 1553 1553
1569 1568 1570 1570 1572 1572 1571 1570 1573 1571 1571 1569 1569 1570 1572 1571 1570 1570 1569 1568 1566 1564 1563 1561 1560 1558 1556 1554 1552 1551 1550 1551
1567 1568 1570 1569 1570 1572 1572 1572 1572 1572 1571 1569 1570 1569 1570 1570 1569 1569 1568 1567 1566 1564 1562 1560 1558 1556 1555 1553 1551 1549 1548 1548
1566 1567 1568 1566 1567 1569 1570 1571 1573 1574 1570 1571 1572 1569 1570 1570 1570 1569 1567 1566 1565 1563 1561 1559 1557 1555 1554 1551 1549 1547 1546 1545
1564 1563 1565 1569 1570 1569 1569 1569 1571 1575 1572 1571 1570 1569 1568 1568 1568 1567 1566 1564 1563 1562 1560 1559 1556 1554 1552 1549 1547 1544 1544 1543
1560 1561 1565 1569 1571 1572 1573 1570 1570 1571 1570 1569 1568 1567 1567 1566 1566 1565 1564 1563 1562 1560 1558 1556 1554 1551 1550 1548 1545 1542 1541 1540
1560 1564 1567 1569 1566 1569 1571 1570 1569 1568 1568 1568 1567 1566 1565 1564 1563 1563 1562 1560 1559 1557 1555 1552 1550 1548 1546 1544 1542 1540 1538 1536
1562 1554 1561 1565 1569 1567 1570 1569 1569 1567 1567 1566 1565 1565 1563 1562 1561 1560 1559 1558 1556 1553 1551 1548 1545 1543 1541 1540 1538 1536 1534 1532
1556 1559 1563 1566 1567 1568 1566 1567 1568 1567 1565 1564 1563 1561 1560 1558 1558 1558 1556 1554 1552 1549 1546 1543 1540 1538 1536 1534 1532 1531 1529 1528
1556 1557 1561 1564 1567 1566 1566 1567 1567 1566 1565 1563 1561 1558 1557 1556 1555 1554 1551 1549 1547 1544 1541 1538 1535 1532 1529 1526 1524 1522 1521 1521
1555 1558 1561 1563 1563 1564 1563 1564 1564 1564 1562 1561 1559 1556 1554 1552 1550 1548 1545 1543 1542 1540 1537 1534 1531 1528 1523 1519 1517 1515 1513 1513
1555 1557 1558 1559 1560 1562 1562 1562 1563 1563 1561 1558 1555 1552 1549 1548 1545 1541 1539 1538 1537 1535 1532 1528 1526 1524 1517 1512 1509 1508 1507 1506
1557 1558 1559 1559 1560 1559 1559 1559 1559 1557 1556 1553 1551 1548 1546 1543 1541 1537 1535 1533 1531 1529 1526 1522 1519 1519 1515 1509 1501 1499 1500 1499
1558 1559 1560 1561 1560 1559 1558 1558 1558 1556 1554 1551 1547 1545 1542 1539 1537 1534 1532 1529 1526 1523 1520 1517 1513 1513 1512 1509 1502 1498 1493 1492
1561 1561 1561 1560 1559 1558 1557 1556 1554 1553 1550 1547 1544 1541 1539 1535 1533 1529 1526 1522 1519 1517 1514 1512 1511 1508 1508 1507 1504 1500 1495 1484
1563 1563 1562 1560 1558 1556 1554 1552 1550 1547 1545 1543 1541 1539 1536 1532 1528 1523 1520 1518 1516 1513 1511 1509 1507 1505 1502 1498 1499 1496 1493 1488
1562 1562 1562 1559 1557 1555 1552 1550 1548 1545 1543 1540 1538 1535 1531 1528 1524 1520 1517 1514 1512 1510 1507 1505 1502 1500 1499 1496 1492 1488 1485 1486
1559 1558 1557 1556 1555 1552 1549 1547 1544 1541 1539 1537 1534 1529 1526 1524 1521 1517 1513 1511 1508 1506 1504 1502 1498 1495 1493 1490 1487 1485 1482 1480
1557 1556 1553 1551 1550 1547 1545 1542 1539 1537 1535 1532 1528 1526 1524 1521 1518 1514 1511 1508 1505 1503 1499 1496 1492 1489 1488 1484 1482 1480 1478 1476
Wind_Speed
14 11 9 9 10 10 10 12 12 11 11 11 11 11 12 14 14 14 14 14 14 14 15 16 14 13 12 12 12 9 3 2
10 8 9 11 12 10 11 12 11 12 13 12 11 11 12 15 13 16 16 17 17 13 17 16 12 9 9 11 12 4 5 6
10 8 8 8 12 14 12 9 9 9 9 10 8 8 8 12 13 14 15 15 14 16 20 16 14 12 15 14 10 6 9 9
11 4 7 8 8 7 7 9 9 9 9 8 5 7 7 9 9 9 13 12 14 16 18 18 17 21 21 18 16 15 16 14
14 5 12 9 6 6 7 9 6 3 4 4 5 3 0 4 6 9 10 12 14 16 17 19 19 20 21 24 22 16 16 17
14 7 8 10 7 9 9 10 6 3 3 4 3 2 4 5 6 9 11 10 12 13 16 21 20 19 21 22 23 23 21 16
18 13 10 7 6 6 9 10 6 7 8 3 4 5 6 6 10 11 12 13 15 17 20 25 22 21 21 21 21 22 22 21
20 14 12 2 7 4 4 9 6 5 5 6 7 7 7 8 10 12 13 15 16 20 23 27 25 24 24 22 23 24 26 25
24 18 14 18 12 8 6 7 4 6 7 9 12 12 11 11 13 14 16 18 21 23 27 28 27 27 25 24 24 24 26 29
17 11 4 10 11 7 6 7 10 5 7 9 7 8 13 14 18 20 20 20 24 27 28 27 26 26 27 28 27 26 27 30
9 5 2 9 11 8 7 9 9 6 7 9 8 10 12 16 21 22 24 25 27 28 27 25 27 29 31 34 34 32 30 32
8 6 10 9 9 6 5 5 4 4 4 7 11 16 20 21 27 25 27 28 28 29 30 30 32 35 35 34 33 32 31 29
7 8 6 4 4 5 5 5 3 5 9 11 11 12 17 24 24 21 24 29 26 29 32 33 32 30 35 36 35 33 32 27
6 3 1 3 3 3 4 5 3 4 6 6 9 12 15 18 21 26 27 25 29 30 31 34 36 27 27 29 28 32 30 24
3 4 4 1 2 3 5 8 10 12 14 19 21 23 23 23 27 25 25 31 31 32 33 30 26 28 26 23 19 18 31 32
8 8 12 15 16 17 16 16 15 14 15 18 21 24 25 26 26 29 34 29 29 27 21 22 25 26 24 24 24 27 17 26
6 6 12 14 16 17 17 12 12 13 16 20 22 22 25 27 29 27 26 22 20 22 21 25 28 30 29 28 31 31 29 29
5 2 5 11 7 5 9 12 15 18 22 26 28 30 30 27 21 23 23 26 26 27 28 29 29 27 27 26 25 24 22 20
1 7 8 10 15 18 16 16 19 20 22 25 29 29 24 26 27 30 29 25 26 27 25 27 24 26 27 28 25 21 18 14
9 13 14 15 14 15 18 20 19 20 22 26 27 21 22 22 32 28 23 25 24 22 24 27 26 28 27 19 21 20 19 16
Wind_Direction
97 96 89 76 63 75 78 83 79 76 69 67 67 49 37 36 16 15 9 1 355 348 351 350 345 342 342 343 346 351 30 331
98 82 77 61 57 67 81 83 85 78 74 71 55 30 28 16 26 16 14 10 11 10 5 0 1 1 352 348 355 354 318 301
122 100 69 72 49 60 63 65 60 63 80 72 72 11 18 20 18 10 3 11 4 356 355 2 354 340 336 322 321 292 291 312
143 104 91 96 52 34 67 77 57 45 72 54 39 61 37 2 4 355 353 5 350 353 358 353 342 336 332 333 312 293 289 292
187 167 146 138 78 95 106 105 51 12 49 358 99 100 354 323 345 358 8 1 356 352 343 339 332 329 321 324 325 320 300 281
193 191 159 154 156 142 133 136 157 196 272 321 46 45 14 4 1 4 4 355 345 331 327 329 329 323 310 309 309 313 320 310
211 204 169 151 184 197 200 198 191 215 250 322 357 348 356 355 353 349 344 338 329 324 320 326 325 316 313 312 313 306 306 311
197 175 141 189 240 237 251 201 210 211 273 303 312 322 320 326 328 322 327 326 314 307 311 319 319 309 305 302 303 301 299 300
197 195 260 253 215 233 198 206 254 213 258 284 297 313 309 302 307 318 319 310 307 309 312 315 309 308 302 297 293 290 293 292
203 230 259 170 185 203 178 218 254 243 258 277 276 276 287 296 307 315 312 308 307 308 312 313 309 304 299 295 291 288 287 289
150 146 163 161 170 193 214 244 281 255 297 290 272 241 265 288 307 307 309 311 309 305 303 301 295 292 291 291 290 291 287 279
136 152 156 143 167 169 212 237 246 253 266 289 297 297 302 310 310 299 305 312 307 299 301 298 297 298 297 293 291 290 290 291
183 230 253 191 176 203 185 191 262 297 335 326 318 308 298 297 297 307 312 311 310 309 307 308 308 305 302 297 293 289 288 291
191 237 301 152 174 213 254 272 305 273 268 285 320 307 305 305 308 311 306 299 304 304 305 306 305 307 303 298 305 301 299 291
51 2 357 22 263 243 262 274 275 267 272 293 297 297 300 306 307 304 304 310 307 305 303 301 296 295 297 302 310 303 306 295
79 26 354 343 338 334 330 327 323 315 301 293 293 296 299 303 303 306 308 311 309 310 310 307 306 304 308 304 298 318 323 313
30 58 18 6 352 341 339 324 310 296 292 295 303 304 309 310 320 324 324 321 317 312 308 310 307 306 302 304 302 298 299 306
11 326 319 3 6 325 299 298 299 298 302 307 313 319 325 334 339 329 322 317 312 310 307 305 302 302 304 307 314 308 301 298
296 304 303 292 305 313 316 313 308 309 310 318 322 326 331 336 334 327 323 322 321 321 312 313 307 320 316 313 308 306 300 297
301 295 289 298 296 299 306 310 313 319 325 326 324 323 325 324 332 326 322 317 318 314 317 317 318 316 314 307 300 290 291 286